DW0148 Weather Reports


time (UTC)temp
C
wind
direction
speed
KPH
gust
KPH
rain 1hr
cm
rain 24hr
cm
rain mn
cm
humidity
%
barometer
mb
20171121205254 15 187 3.2 6.4 0.00 0.03 0.03 68 1018.8
20171121204753 15 179 3.2 9.7 0.00 0.03 0.03 68 1018.8
20171121204252 15 165 1.6 9.7 0.00 0.03 0.03 68 1018.8
20171121203751 15 123 1.6 9.7 0.00 0.03 0.03 69 1018.8
20171121203251 14 186 6.4 9.7 0.00 0.03 0.03 69 1018.8
20171121202750 14 138 0.0 6.4 0.00 0.03 0.03 70 1018.8
20171121202249 14 162 1.6 8.0 0.00 0.03 0.03 70 1018.8
20171121201748 14 102 1.6 8.0 0.00 0.03 0.03 68 1019.1
20171121201247 14 70 3.2 8.0 0.00 0.03 0.03 68 1019.1
20171121200746 14 135 1.6 9.7 0.00 0.03 0.03 69 1019.1
20171121200245 14 71 4.8 9.7 0.00 0.03 0.03 68 1019.1
20171121195744 14 158 3.2 12.9 0.00 0.03 0.03 68 1019.1
20171121195244 14 89 3.2 12.9 0.00 0.03 0.03 68 1019.1
20171121194743 14 118 3.2 8.0 0.00 0.03 0.03 68 1019.5
20171121194242 13 122 1.6 9.7 0.00 0.03 0.03 69 1019.5
20171121193741 13 53 4.8 9.7 0.00 0.03 0.03 70 1019.5
20171121193240 13 169 4.8 12.9 0.00 0.03 0.03 70 1019.5
20171121192739 13 141 3.2 12.9 0.00 0.03 0.03 70 1019.5
20171121192238 13 182 4.8 8.0 0.00 0.03 0.03 70 1019.8
20171121191736 13 178 3.2 6.4 0.00 0.03 0.03 70 1019.8
20171121191235 13 198 3.2 8.0 0.00 0.03 0.03 70 1020.1
20171121190734 13 185 3.2 8.0 0.00 0.03 0.03 71 1020.1
20171121190233 12 224 1.6 9.7 0.00 0.03 0.03 70 1020.1
20171121185732 12 166 4.8 9.7 0.00 0.03 0.03 71 1020.1
20171121185231 12 139 4.8 12.9 0.00 0.03 0.03 71 1020.5
20171121184730 12 192 6.4 12.9 0.00 0.03 0.03 71 1020.1
20171121184229 12 208 1.6 9.7 0.00 0.03 0.03 71 1020.1
20171121183728 12 191 3.2 9.7 0.00 0.03 0.03 71 1020.1
20171121183228 12 218 1.6 6.4 0.00 0.03 0.03 70 1020.5
20171121182726 12 203 1.6 3.2 0.00 0.03 0.03 72 1020.5
20171121182226 12 166 1.6 4.8 0.00 0.03 0.03 71 1020.5
20171121181725 12 222 1.6 4.8 0.00 0.03 0.03 71 1020.8
20171121181224 12 249 1.6 3.2 0.00 0.03 0.03 71 1020.8
20171121180723 12 235 0.0 4.8 0.00 0.03 0.03 71 1020.8
20171121180222 12 203 0.0 4.8 0.00 0.03 0.03 70 1020.8
20171121175721 12 224 0.0 4.8 0.00 0.03 0.03 70 1021.2
20171121175220 12 195 3.2 6.4 0.00 0.03 0.03 70 1021.2
20171121174719 12 180 3.2 6.4 0.00 0.03 0.03 68 1021.2
20171121174218 12 250 1.6 6.4 0.00 0.03 0.03 69 1021.2
20171121173717 12 170 3.2 6.4 0.00 0.03 0.03 70 1021.2
20171121173216 12 226 0.0 4.8 0.00 0.03 0.03 70 1021.5
20171121172715 12 219 1.6 6.4 0.00 0.03 0.03 70 1021.5
20171121172214 12 264 4.8 6.4 0.00 0.03 0.03 70 1021.5
20171121171713 11 228 3.2 4.8 0.00 0.03 0.03 70 1021.5
20171121171212 11 235 0.0 8.0 0.00 0.03 0.03 71 1021.8
20171121170640 11 214 1.6 8.0 0.00 0.03 0.03 71 1021.8
20171121170139 11 177 3.2 8.0 0.00 0.03 0.03 69 1021.8
20171121165608 11 175 4.8 8.0 0.00 0.03 0.03 69 1021.8
20171121165107 11 210 3.2 6.4 0.00 0.03 0.03 69 1021.8
20171121164606 11 229 3.2 8.0 0.00 0.03 0.03 69 1021.8
20171121164105 11 237 1.6 8.0 0.00 0.03 0.03 70 1021.8
20171121163604 11 222 1.6 9.7 0.00 0.03 0.03 71 1021.8
20171121163103 10 215 3.2 9.7 0.00 0.03 0.03 72 1021.8
20171121162602 10 232 1.6 6.4 0.00 0.03 0.03 72 1021.8
20171121162101 10 215 1.6 6.4 0.00 0.03 0.03 71 1022.2
20171121161601 10 233 3.2 6.4 0.00 0.03 0.03 70 1022.2
20171121161100 10 228 1.6 6.4 0.00 0.03 0.03 71 1022.2
20171121160559 10 248 3.2 6.4 0.00 0.03 0.03 71 1022.2
20171121160058 10 223 1.6 4.8 0.00 0.03 0.03 73 1022.2
20171121155558 10 215 1.6 4.8 0.00 0.03 0.03 73 1022.2
20171121155057 10 210 1.6 4.8 0.00 0.03 0.03 73 1022.5
20171121154556 9 221 0.0 4.8 0.00 0.03 0.03 73 1022.5
20171121154055 9 149 1.6 8.0 0.00 0.03 0.03 72 1022.5
20171121153554 9 67 3.2 8.0 0.00 0.03 0.03 74 1022.5
20171121153054 8 287 0.0 6.4 0.03 0.03 0.03 74 1022.5
20171121152552 8 185 1.6 9.7 0.03 0.03 0.03 73 1022.5
20171121152021 8 50 3.2 9.7 0.03 0.03 0.03 74 1022.5
20171121151519 8 65 4.8 12.9 0.03 0.03 0.03 74 1022.9
20171121151019 8 168 6.4 12.9 0.03 0.03 0.03 73 1023.2
20171121150518 8 179 3.2 4.8 0.03 0.03 0.03 74 1022.9
20171121150016 8 150 3.2 6.4 0.03 0.03 0.03 74 1022.9
20171121145516 8 179 3.2 6.4 0.03 0.03 0.03 76 1022.9
20171121145015 7 139 1.6 4.8 0.03 0.03 0.03 77 1023.2
20171121144514 7 157 1.6 4.8 0.03 0.03 0.03 75 1023.2
20171121144014 7 190 0.0 1.6 0.03 0.03 0.03 77 1022.9
20171121143513 7 190 0.0 1.6 0.00 0.00 0.00 81 1022.9
20171121143012 6 149 1.6 1.6 0.00 0.00 0.00 81 1022.9
20171121142511 6 109 1.6 1.6 0.00 0.00 0.00 86 1022.9
20171121142010 5 96 0.0 1.6 0.00 0.00 0.00 86 1022.9
20171121141509 5 96 0.0 0.0 0.00 0.00 0.00 86 1022.9
20171121141008 5 96 0.0 0.0 0.00 0.00 0.00 87 1022.5
20171121140436 4 96 0.0 0.0 0.00 0.00 0.00 89 1022.9
20171121135936 4 96 0.0 0.0 0.00 0.00 0.00 91 1022.9
20171121135404 3 96 0.0 1.6 0.00 0.00 0.00 90 1022.9
20171121134903 3 96 0.0 3.2 0.00 0.00 0.00 90 1022.9
20171121134331 3 96 0.0 3.2 0.00 0.00 0.00 91 1022.9
20171121133830 3 73 0.0 4.8 0.00 0.00 0.00 91 1022.9
20171121133329 3 74 3.2 4.8 0.00 0.00 0.00 93 1022.5
20171121132828 2 74 0.0 4.8 0.00 0.00 0.00 94 1022.9
20171121132327 2 73 1.6 4.8 0.00 0.00 0.00 95 1022.9
20171121131826 2 75 0.0 1.6 0.00 0.00 0.00 95 1022.9
20171121131325 1 75 0.0 1.6 0.00 0.00 0.00 95 1022.9
20171121130753 1 75 1.6 1.6 0.00 0.00 0.00 95 1022.9
20171121130253 1 75 0.0 0.0 0.00 0.00 0.00 95 1023.2
20171121125752 1 75 0.0 1.6 0.00 0.00 0.00 95 1023.2
20171121125251 0 75 0.0 1.6 0.00 0.00 0.00 95 1023.2
20171121124750 0 75 0.0 1.6 0.00 0.00 0.00 95 1023.2
20171121124249 0 75 0.0 1.6 0.00 0.00 0.00 95 1023.2
20171121123748 0 75 0.0 0.0 0.00 0.00 0.00 95 1023.2
20171121123216 0 75 0.0 1.6 0.00 0.00 0.00 95 1023.2
20171121122715 0 75 0.0 1.6 0.00 0.00 0.00 95 1023.2
20171121122215 0 75 0.0 1.6 0.00 0.00 0.00 95 1022.9
20171121121714 0 75 0.0 1.6 0.00 0.00 0.00 94 1022.9
20171121121213 0 75 1.6 1.6 0.00 0.00 0.00 94 1022.5
20171121120641 0 75 0.0 1.6 0.00 0.00 0.00 94 1022.5
20171121120141 0 75 0.0 1.6 0.00 0.00 0.00 94 1022.5
20171121115640 0 75 1.6 1.6 0.00 0.00 0.00 94 1022.5
20171121115139 0 75 1.6 1.6 0.00 0.00 0.00 94 1022.5
20171121114606 0 75 1.6 1.6 0.00 0.00 0.00 94 1022.5
20171121114035 0 75 1.6 1.6 0.00 0.00 0.00 94 1022.9
20171121113533 0 75 0.0 1.6 0.00 0.00 0.00 94 1022.9
20171121113033 0 75 0.0 4.8 0.00 0.00 0.00 94 1022.9
20171121112531 0 75 3.2 4.8 0.00 0.00 0.00 94 1022.9
20171121111959 0 92 1.6 1.6 0.00 0.00 0.00 94 1022.5
20171121111356 0 94 1.6 1.6 0.00 0.00 0.00 94 1022.9
20171121110855 0 26 1.6 1.6 0.00 0.00 0.00 94 1022.9
20171121110354 0 26 0.0 1.6 0.00 0.00 0.00 94 1022.9
20171121105854 0 26 0.0 1.6 0.00 0.00 0.00 94 1022.9
20171121105353 0 26 0.0 1.6 0.00 0.00 0.00 94 1022.9
20171121104852 0 26 0.0 0.0 0.00 0.00 0.00 94 1022.9
20171121104351 0 26 0.0 0.0 0.00 0.00 0.00 94 1022.9
20171121103850 0 26 0.0 0.0 0.00 0.00 0.00 94 1022.9
20171121103349 0 26 0.0 1.6 0.00 0.00 0.00 94 1022.5
20171121102817 0 26 0.0 1.6 0.00 0.00 0.00 94 1022.5
20171121102225 0 26 0.0 1.6 0.00 0.00 0.00 94 1022.5
20171121101724 0 23 1.6 1.6 0.00 0.00 0.00 94 1022.5
20171121101223 0 358 0.0 0.0 0.00 0.00 0.00 94 1022.5
20171121100722 0 359 0.0 1.6 0.00 0.00 0.00 94 1022.5
20171121100220 0 359 0.0 1.6 0.00 0.00 0.00 94 1022.5
20171121095719 0 359 0.0 1.6 0.00 0.00 0.00 94 1022.5
20171121095218 0 359 0.0 1.6 0.00 0.00 0.00 94 1022.5
20171121094718 0 72 0.0 1.6 0.00 0.00 0.00 94 1022.5
20171121094217 0 72 0.0 1.6 0.00 0.00 0.00 94 1022.9
20171121093715 0 72 0.0 1.6 0.00 0.00 0.00 94 1022.5
20171121093215 0 72 0.0 1.6 0.00 0.00 0.00 94 1022.9
20171121092713 0 72 0.0 1.6 0.00 0.00 0.00 94 1022.9
20171121092213 0 72 0.0 1.6 0.00 0.00 0.00 94 1022.9
20171121091711 0 72 1.6 1.6 0.00 0.00 0.00 93 1022.9
20171121091211 0 72 0.0 1.6 0.00 0.00 0.00 93 1022.9
20171121090709 0 72 0.0 1.6 0.00 0.00 0.00 93 1022.9
20171121090207 0 72 0.0 1.6 0.00 0.00 0.00 93 1022.9
20171121085706 0 70 1.6 1.6 0.00 0.00 0.00 93 1023.2
20171121085205 0 90 0.0 1.6 0.00 0.00 0.00 93 1023.2
20171121084704 0 91 0.0 1.6 0.00 0.00 0.00 93 1023.2
20171121084203 0 90 1.6 1.6 0.00 0.00 0.00 93 1023.2
20171121083702 0 91 0.0 4.8 0.00 0.00 0.00 93 1023.2
20171121083159 0 90 1.6 4.8 0.00 0.00 0.00 93 1023.2
20171121082659 0 86 1.6 4.8 0.00 0.00 0.00 93 1023.2
20171121082157 -1 87 1.6 4.8 0.00 0.00 0.00 94 1023.2
20171121081657 -1 77 1.6 1.6 0.00 0.00 0.00 94 1023.2
20171121081156 -1 75 1.6 1.6 0.00 0.00 0.00 94 1023.2
20171121080654 -1 23 0.0 1.6 0.00 0.00 0.00 93 1023.2
20171121080152 -1 23 1.6 1.6 0.00 0.00 0.00 93 1023.2
20171121075651 -1 23 1.6 1.6 0.00 0.00 0.00 93 1023.2
20171121075150 -1 98 0.0 1.6 0.00 0.00 0.00 93 1023.2
20171121074649 -1 99 0.0 1.6 0.00 0.00 0.00 93 1023.2
20171121074147 -1 97 1.6 1.6 0.00 0.00 0.00 93 1023.2
20171121073646 -1 87 1.6 4.8 0.00 0.00 0.00 93 1023.5
20171121073144 -1 81 1.6 4.8 0.00 0.00 0.00 93 1023.2
20171121072643 -1 80 0.0 1.6 0.00 0.00 0.00 93 1023.5
20171121072142 -1 80 0.0 1.6 0.00 0.00 0.00 93 1023.5
20171121071642 -1 80 0.0 1.6 0.00 0.00 0.00 93 1023.5
20171121071141 -1 63 1.6 1.6 0.00 0.00 0.00 93 1023.5
20171121070640 -1 13 0.0 1.6 0.00 0.00 0.00 93 1023.5
20171121070138 -1 13 1.6 1.6 0.00 0.00 0.00 93 1023.5
20171121065638 -1 8 1.6 1.6 0.00 0.00 0.00 93 1023.5
20171121065137 -1 347 1.6 1.6 0.00 0.00 0.00 93 1023.5
20171121064636 -1 80 0.0 1.6 0.00 0.00 0.00 93 1023.5
20171121064135 -1 82 0.0 1.6 0.00 0.00 0.00 93 1023.5
20171121063634 -1 70 1.6 1.6 0.00 0.00 0.00 93 1023.9
20171121063133 -1 37 1.6 1.6 0.00 0.00 0.00 93 1023.9
20171121062632 -1 37 0.0 3.2 0.00 0.00 0.00 93 1023.9
20171121062131 0 37 0.0 3.2 0.00 0.00 0.00 93 1023.9
20171121061630 0 37 1.6 4.8 0.00 0.00 0.00 93 1023.5
20171121061130 -1 36 1.6 4.8 0.00 0.00 0.00 93 1023.5
20171121060629 -1 80 1.6 1.6 0.00 0.00 0.00 92 1023.5
20171121060128 0 80 1.6 1.6 0.00 0.00 0.00 92 1023.5
20171121055627 0 81 1.6 1.6 0.00 0.00 0.00 93 1023.5
20171121055126 0 80 0.0 1.6 0.00 0.00 0.00 93 1023.9
20171121054626 0 81 0.0 1.6 0.00 0.00 0.00 92 1023.9
20171121054125 0 80 0.0 1.6 0.00 0.00 0.00 93 1023.9
20171121053624 0 80 1.6 1.6 0.00 0.00 0.00 93 1023.9
20171121053123 0 80 0.0 0.0 0.00 0.00 0.00 92 1023.9
20171121052622 0 80 0.0 1.6 0.00 0.00 0.00 93 1023.9
20171121052121 0 80 0.0 1.6 0.00 0.00 0.00 92 1023.9
20171121051620 0 80 0.0 1.6 0.00 0.00 0.00 93 1023.9
20171121051119 0 80 0.0 1.6 0.00 0.00 0.00 93 1023.9
20171121050618 0 80 1.6 1.6 0.00 0.00 0.00 93 1023.9
20171121050118 0 80 0.0 1.6 0.00 0.00 0.00 93 1023.9
20171121045617 0 80 0.0 1.6 0.00 0.00 0.00 92 1023.9
20171121045116 0 80 0.0 1.6 0.00 0.00 0.00 92 1023.9
20171121044615 0 81 0.0 1.6 0.00 0.00 0.00 92 1023.9
20171121044115 0 80 0.0 1.6 0.00 0.00 0.00 92 1023.9
20171121043614 0 80 1.6 1.6 0.00 0.00 0.00 92 1023.9
20171121043113 0 80 0.0 1.6 0.00 0.00 0.00 92 1023.5
20171121042612 0 80 0.0 0.0 0.00 0.00 0.00 92 1023.5
20171121042108 0 80 0.0 0.0 0.00 0.00 0.00 92 1023.5
20171121041606 0 80 0.0 0.0 0.00 0.00 0.00 92 1023.9
20171121041105 0 80 0.0 1.6 0.00 0.00 0.00 91 1023.9
20171121040604 0 80 0.0 1.6 0.00 0.00 0.00 91 1023.5
20171121040102 0 80 0.0 1.6 0.00 0.00 0.00 91 1023.9
20171121035601 0 81 0.0 1.6 0.00 0.00 0.00 91 1023.5
20171121035100 0 81 0.0 1.6 0.00 0.00 0.00 91 1023.5
20171121034559 0 80 1.6 1.6 0.00 0.00 0.00 91 1023.5
20171121034057 0 80 0.0 1.6 0.00 0.00 0.00 91 1023.5
20171121033556 0 80 0.0 1.6 0.00 0.00 0.00 91 1023.9
20171121033056 0 80 0.0 1.6 0.00 0.00 0.00 91 1023.5
20171121032555 0 81 1.6 1.6 0.00 0.00 0.00 90 1023.9
20171121032054 0 80 0.0 1.6 0.00 0.00 0.00 90 1023.9
20171121031553 0 80 1.6 1.6 0.00 0.00 0.00 91 1023.9
20171121031053 0 80 0.0 1.6 0.00 0.00 0.00 91 1023.9
20171121030551 0 80 0.0 1.6 0.00 0.00 0.00 91 1023.9
20171121030050 0 80 0.0 1.6 0.00 0.00 0.00 91 1023.9
20171121025550 0 80 1.6 1.6 0.00 0.00 0.00 92 1023.9
20171121025048 0 80 1.6 1.6 0.00 0.00 0.00 91 1023.9
20171121024548 0 81 1.6 1.6 0.00 0.00 0.00 91 1023.9
20171121024047 0 80 1.6 1.6 0.00 0.00 0.00 91 1023.9
20171121023546 0 80 1.6 1.6 0.00 0.00 0.00 91 1023.9
20171121023045 0 80 0.0 1.6 0.00 0.00 0.00 91 1023.9
20171121022544 0 80 0.0 1.6 0.00 0.00 0.00 90 1023.9
20171121022043 0 80 0.0 1.6 0.00 0.00 0.00 89 1023.9
20171121021542 0 80 0.0 1.6 0.00 0.00 0.00 90 1023.9
20171121021041 0 80 0.0 1.6 0.00 0.00 0.00 90 1023.9
20171121020539 0 80 0.0 1.6 0.00 0.00 0.00 90 1023.9
20171121020040 0 80 0.0 1.6 0.00 0.00 0.00 90 1023.9
20171121015536 0 80 0.0 1.6 0.00 0.00 0.00 90 1023.5
20171121015035 1 80 1.6 1.6 0.00 0.00 0.00 90 1023.5
20171121014534 1 80 0.0 0.0 0.00 0.00 0.00 89 1023.9
20171121014033 1 81 0.0 1.6 0.00 0.00 0.00 88 1023.9
20171121013532 1 80 0.0 1.6 0.00 0.00 0.00 88 1023.9
20171121013031 1 80 0.0 1.6 0.00 0.00 0.00 88 1023.5
20171121012530 1 80 0.0 1.6 0.00 0.00 0.00 88 1023.5
20171121012029 1 80 0.0 1.6 0.00 0.00 0.00 88 1023.5
20171121011528 1 80 1.6 1.6 0.00 0.00 0.00 88 1023.5
20171121011028 1 80 0.0 0.0 0.00 0.00 0.00 88 1023.5
20171121010526 1 80 0.0 1.6 0.00 0.00 0.00 86 1023.5
20171121010025 1 80 0.0 1.6 0.00 0.00 0.00 87 1023.9
20171121005524 1 80 0.0 1.6 0.00 0.00 0.00 86 1023.5
20171121005023 1 80 1.6 1.6 0.00 0.00 0.00 87 1023.9
20171121004522 1 88 1.6 1.6 0.00 0.00 0.00 88 1023.5
20171121004021 1 89 1.6 1.6 0.00 0.00 0.00 88 1023.5
20171121003519 1 89 1.6 1.6 0.00 0.00 0.00 88 1023.5
20171121003018 1 89 1.6 1.6 0.00 0.00 0.00 87 1023.5
20171121002516 2 89 1.6 1.6 0.00 0.00 0.00 87 1023.5
20171121002015 2 89 1.6 1.6 0.00 0.00 0.00 87 1023.5
20171121001514 2 89 1.6 1.6 0.00 0.00 0.00 85 1023.9
20171121001013 2 89 1.6 1.6 0.00 0.00 0.00 84 1023.9
20171121000512 2 89 0.0 1.6 0.00 0.00 0.00 85 1023.5
20171121000012 2 89 0.0 1.6 0.00 0.00 0.00 85 1023.5
20171120235511 2 89 1.6 1.6 0.00 0.00 0.00 85 1023.5
20171120235010 2 89 1.6 1.6 0.00 0.00 0.00 85 1023.9
20171120234508 2 89 1.6 1.6 0.00 0.00 0.00 85 1023.5
20171120233936 2 115 1.6 1.6 0.00 0.00 0.00 85 1023.5
20171120233435 2 115 0.0 1.6 0.00 0.00 0.00 85 1023.5
20171120232934 2 134 1.6 1.6 0.00 0.00 0.00 84 1023.5
20171120232433 2 139 0.0 1.6 0.00 0.00 0.00 83 1023.5
20171120231932 3 139 1.6 1.6 0.00 0.00 0.00 83 1023.5
20171120231432 3 138 1.6 1.6 0.00 0.00 0.00 83 1023.5
20171120230931 3 138 0.0 1.6 0.00 0.00 0.00 82 1023.5
20171120230429 3 139 0.0 1.6 0.00 0.00 0.00 81 1023.5
20171120225929 3 139 0.0 1.6 0.00 0.00 0.00 81 1023.5
20171120225428 4 147 0.0 0.0 0.00 0.00 0.00 80 1023.5
20171120224927 4 146 0.0 0.0 0.00 0.00 0.00 78 1023.5
20171120224426 5 146 0.0 0.0 0.00 0.00 0.00 77 1023.5
20171120223925 5 146 0.0 0.0 0.00 0.00 0.00 76 1023.5
20171120223719 5 146 0.0 0.0 0.00 0.00 0.00 75 1023.5
20171120221328 7 146 0.0 1.6 0.00 0.00 0.00 70 1023.5
20171120220828 8 146 0.0 1.6 0.00 0.00 0.00 68 1023.9
20171120220327 8 146 0.0 0.0 0.00 0.00 0.00 64 1023.9
20171120215825 9 146 0.0 0.0 0.00 0.00 0.00 61 1023.9
20171120215324 9 146 0.0 0.0 0.00 0.00 0.00 57 1023.9
20171120214823 10 146 0.0 1.6 0.00 0.00 0.00 56 1023.9
20171120214322 10 146 0.0 1.6 0.00 0.00 0.00 56 1024.2
20171120213821 11 146 0.0 1.6 0.00 0.00 0.00 50 1023.9
20171120213321 11 143 0.0 1.6 0.00 0.00 0.00 51 1023.9
20171120212820 11 167 0.0 4.8 0.00 0.00 0.00 48 1023.9
20171120212319 11 166 0.0 6.4 0.00 0.00 0.00 50 1024.2
20171120211819 11 225 1.6 6.4 0.00 0.00 0.00 51 1024.2
20171120211318 11 139 3.2 4.8 0.00 0.00 0.00 49 1024.2
20171120210818 11 216 1.6 4.8 0.00 0.00 0.00 49 1024.2
20171120210317 11 239 0.0 4.8 0.00 0.00 0.00 48 1024.2
20171120205816 11 202 3.2 4.8 0.00 0.00 0.00 49 1024.2